Retour au catalogue

DELTA 1 DEB

ActifSSO
NORAD 21273·DEBRIS·🇺🇸 United States

Lancé Jun 12, 1975 depuis Vandenberg Space Force Base

Loading…

Prochains Passages (prochaines 24 heures)

TLE

FraisSource: Space-Track

Époque: Sep 14, 2026, 12:06 UTC

1 21273U 75052J   26257.50460561 -.00000006  00000-0  68086-4 0  9992
2 21273  99.6772  95.5539 0036670  41.6551 349.3338 13.37962158505320

Suivez DELTA 1 DEB en temps réel avec AllMySat

Download on the App Store